Probability
0 0 0 0 0 0 0 0 0 0 0 0 0 0 6 6 16 23 35 39 32 35 32 52 65 74 87 97 97 90 94 90 90 84 84 94 87 87 84 87 81 84 87 94
0 0 0 0 0 0 0 0 0 0 0 0 0 0 3 10 23 26 35 39 35 32 42 52 74 71 84 94 94 90 94 90 90 94 94 94 90 87 87 87 87 81 81 90
0 0 0 0 0 0 0 0 0 0 0 0 0 3 10 13 19 26 32 35 32 32 35 58 77 77 84 94 94 87 94 90 94 94 90 94 94 90 90 87 90 87 77 77
0 0 0 0 0 0 0 0 0 0 0 0 0 0 0 13 16 23 29 35 35 39 45 52 71 84 84 90 90 94 94 94 94 94 94 90 87 87 84 84 87 87 84 81
0 0 0 0 0 0 0 0 0 0 0 0 0 0 0 13 19 23 39 45 29 35 39 52 61 77 81 81 90 94 97 94 94 94 94 94 94 94 81 77 87 90 87 87
0 0 0 0 0 0 0 0 3 0 0 0 0 0 0 0 10 16 39 52 55 52 42 48 65 77 81 81 87 94 94 97 94 94 94 97 97 94 94 87 87 84 84 87
0 0 0 0 0 0 0 0 0 0 0 0 0 0 0 6 6 16 16 42 55 55 58 61 68 77 87 87 90 94 94 94 94 94 94 97 97 97 94 94 87 84 77 81
0 0 0 0 0 0 0 0 0 0 0 0 0 0 0 6 16 16 19 32 61 65 68 71 71 81 84 87 90 94 94 94 94 94 97 97 94 87 87 90 81 84 74 77
0 0 0 0 0 0 0 0 0 0 0 0 0 0 0 6 13 19 23 26 45 65 65 71 81 87 90 90 90 94 94 94 94 94 94 97 94 97 90 90 90 84 90 81
0 0 0 0 0 0 0 0 0 0 0 0 0 0 0 13 16 16 16 32 52 74 77 77 77 84 90 90 94 94 94 94 94 94 94 94 90 90 90 90 87 87 87 87
0 0 0 0 0 0 0 0 0 0 0 0 0 0 6 13 16 19 19 35 55 65 74 74 71 74 77 77 84 84 87 87 90 90 90 90 90 90 90 87 87 87 90 87
0 0 0 0 0 0 0 0 0 0 0 0 0 6 6 13 16 23 23 29 52 61 71 74 74 71 74 81 84 90 87 87 84 84 87 87 84 87 87 87 87 87 87 87
0 0 0 0 0 0 0 0 0 0 0 0 0 3 6 16 19 19 26 35 52 61 65 74 74 71 74 81 81 84 84 84 84 87 77 87 84 84 87 87 87 87 87 87
0 0 0 0 0 0 0 0 0 0 0 0 0 3 13 19 23 23 32 42 48 55 61 71 71 77 74 87 84 84 81 81 81 77 77 84 84 81 84 87 87 87 90 81
0 0 0 0 0 0 0 0 0 0 0 0 3 3 10 13 19 26 32 42 48 58 61 65 77 77 81 77 84 84 81 84 84 84 81 87 90 90 87 87 84 87 87 77
0 0 0 0 0 0 0 0 0 0 0 3 3 3 6 16 16 29 35 39 45 58 58 65 68 71 77 77 77 77 77 77 81 84 84 84 87 87 87 84 87 84 77 81
0 0 0 0 0 0 0 0 0 0 0 3 3 0 10 16 26 26 32 35 45 42 58 58 65 61 68 71 74 74 74 74 81 81 84 81 87 87 87 90 81 81 77 77
0 0 0 0 0 0 0 0 0 0 3 3 3 10 16 19 26 26 26 32 42 42 52 52 58 58 55 61 65 68 71 74 77 77 74 71 77 84 84 81 77 81 81 71
0 0 0 0 0 0 0 0 0 0 0 0 3 13 16 19 23 23 26 29 39 42 52 52 52 52 55 55 58 61 65 68 61 65 68 74 68 71 77 77 77 77 74 71
0 0 0 0 0 0 0 0 0 0 0 10 13 13 19 23 19 26 29 35 39 48 45 52 48 45 52 55 52 55 58 58 61 61 61 61 68 65 65 65 71 68 68 61
0 0 0 0 0 0 0 0 3 0 6 13 13 16 19 26 26 29 32 42 48 48 42 45 45 45 52 55 55 55 55 52 58 61 61 61 65 58 61 61 68 58 58 55
0 0 0 0 0 0 3 6 10 13 16 19 23 23 29 29 32 35 39 45 45 45 45 42 42 45 52 52 48 52 48 55 55 58 58 58 61 55 61 61 55 58 52 48
0 3 0 0 3 6 3 13 13 13 19 19 19 19 26 35 32 39 39 35 32 35 35 35 35 48 48 55 55 48 52 48 52 55 55 52 52 48 52 52 42 42 45 42
3 3 3 3 3 3 6 6 13 16 23 23 26 23 32 29 32 35 29 26 29 29 26 23 26 39 45 52 52 52 52 55 48 52 52 48 39 35 29 39 42 35 39 35
3 3 6 6 6 6 6 6 10 19 23 23 29 26 26 32 29 29 26 26 29 26 23 23 26 32 32 39 42 42 39 48 45 45 42 32 32 26 29 23 29 39 29 26
0 3 3 3 6 6 6 6 13 23 23 23 26 26 26 29 29 23 26 23 23 19 19 26 26 23 29 32 32 32 35 35 35 39 29 32 32 32 23 16 13 6 13 6
Height
5920 5924 5926 5928 5930 5932 5933 5934 5935 5935 5935 5935 5935 5935 5934 5933 5932 5930 5929 5927 5926 5924 5923 5921 5919 5917 5915 5913 5910 5908 5906 5904 5903 5901 5899 5898 5896 5895 5894 5893 5892 5891 5890 5890
5917 5920 5923 5924 5926 5928 5930 5932 5933 5933 5933 5934 5934 5934 5934 5933 5932 5931 5929 5928 5927 5925 5924 5922 5920 5918 5916 5914 5912 5910 5908 5906 5904 5902 5901 5899 5897 5896 5894 5893 5892 5891 5890 5889
5913 5917 5918 5920 5923 5925 5927 5929 5931 5931 5931 5932 5933 5934 5934 5933 5932 5931 5929 5928 5927 5926 5924 5923 5921 5920 5918 5916 5914 5912 5910 5907 5905 5904 5902 5900 5898 5897 5896 5894 5892 5891 5890 5889
5908 5911 5913 5916 5919 5921 5924 5925 5927 5928 5929 5931 5931 5934 5933 5931 5931 5930 5929 5928 5927 5926 5925 5923 5922 5920 5919 5917 5915 5913 5911 5909 5907 5905 5903 5901 5900 5898 5896 5895 5893 5891 5890 5889
5902 5905 5908 5912 5915 5917 5920 5922 5923 5925 5926 5928 5929 5930 5932 5929 5929 5929 5928 5927 5926 5925 5924 5923 5922 5920 5919 5917 5915 5913 5911 5910 5908 5906 5904 5902 5900 5899 5897 5895 5893 5892 5891 5890
5897 5900 5903 5906 5910 5912 5915 5917 5919 5921 5923 5925 5926 5927 5928 5928 5927 5927 5926 5926 5925 5924 5923 5922 5921 5920 5919 5917 5915 5914 5912 5910 5908 5907 5905 5903 5901 5899 5898 5896 5894 5893 5891 5891
5891 5894 5897 5901 5904 5907 5910 5914 5917 5918 5920 5921 5921 5922 5924 5923 5923 5924 5924 5923 5923 5923 5922 5921 5920 5919 5918 5916 5915 5913 5912 5910 5909 5907 5905 5903 5902 5900 5898 5897 5895 5894 5892 5891
5885 5889 5891 5895 5899 5901 5904 5909 5912 5915 5918 5919 5916 5917 5919 5919 5919 5920 5920 5920 5921 5920 5920 5919 5918 5918 5916 5915 5914 5913 5911 5910 5908 5907 5905 5903 5902 5900 5898 5896 5895 5893 5892 5890
5880 5883 5885 5888 5892 5896 5898 5902 5906 5909 5910 5913 5913 5912 5914 5914 5915 5916 5916 5917 5917 5918 5917 5917 5916 5915 5915 5913 5912 5911 5910 5908 5907 5906 5904 5903 5901 5899 5898 5896 5894 5892 5891 5889
5873 5877 5879 5882 5886 5889 5893 5896 5899 5902 5904 5906 5909 5908 5909 5909 5910 5911 5912 5913 5914 5914 5914 5914 5913 5913 5912 5911 5910 5909 5908 5907 5906 5904 5903 5901 5900 5898 5896 5895 5893 5891 5889 5887
5866 5870 5873 5876 5878 5882 5886 5889 5891 5895 5898 5901 5904 5907 5904 5904 5905 5907 5908 5908 5909 5910 5910 5910 5910 5910 5909 5909 5908 5907 5906 5905 5904 5902 5901 5899 5898 5896 5895 5893 5891 5889 5888 5886
5857 5862 5866 5868 5871 5875 5878 5881 5885 5888 5890 5892 5896 5902 5898 5898 5900 5901 5902 5903 5904 5905 5905 5906 5906 5906 5906 5905 5905 5904 5903 5902 5901 5900 5899 5897 5895 5894 5892 5891 5889 5887 5885 5884
5850 5854 5859 5862 5866 5867 5870 5873 5877 5880 5883 5885 5889 5894 5891 5892 5894 5895 5897 5898 5899 5900 5901 5901 5901 5902 5901 5901 5901 5900 5899 5899 5898 5897 5895 5894 5893 5891 5889 5887 5886 5884 5882 5881
5841 5845 5851 5857 5858 5859 5862 5866 5869 5872 5876 5878 5881 5884 5885 5885 5887 5889 5890 5892 5893 5894 5895 5896 5896 5897 5896 5896 5896 5896 5895 5894 5893 5892 5891 5890 5889 5887 5885 5884 5882 5880 5879 5877
5832 5836 5840 5845 5849 5852 5854 5857 5860 5863 5867 5871 5873 5874 5876 5878 5880 5881 5883 5885 5886 5888 5889 5889 5890 5890 5891 5891 5891 5890 5890 5889 5889 5888 5887 5886 5884 5883 5881 5879 5878 5876 5875 5873
5823 5828 5832 5836 5840 5843 5845 5849 5852 5855 5858 5861 5863 5865 5867 5870 5871 5873 5875 5877 5878 5880 5881 5882 5883 5883 5884 5884 5884 5884 5884 5883 5882 5882 5881 5880 5879 5878 5876 5874 5873 5871 5870 5868
5815 5819 5824 5827 5830 5833 5836 5840 5843 5846 5849 5852 5854 5857 5859 5861 5863 5865 5866 5868 5870 5871 5873 5874 5875 5876 5876 5877 5877 5877 5877 5876 5876 5875 5875 5874 5873 5872 5870 5868 5867 5866 5864 5862
5806 5810 5815 5819 5822 5824 5829 5831 5834 5837 5839 5842 5845 5847 5849 5851 5853 5855 5857 5858 5860 5862 5864 5865 5866 5867 5868 5868 5869 5869 5869 5869 5869 5868 5868 5867 5866 5865 5863 5861 5860 5859 5857 5856
5798 5802 5806 5810 5812 5815 5818 5821 5824 5827 5829 5832 5835 5837 5839 5841 5844 5845 5846 5848 5850 5852 5854 5855 5857 5858 5858 5859 5860 5861 5861 5861 5861 5860 5860 5859 5858 5857 5855 5854 5853 5851 5850 5848
5789 5793 5797 5800 5804 5806 5808 5811 5814 5818 5818 5821 5824 5826 5829 5831 5833 5835 5836 5838 5840 5842 5843 5845 5846 5848 5849 5850 5850 5851 5851 5852 5852 5852 5851 5850 5850 5848 5847 5846 5845 5844 5842 5840
5780 5783 5787 5790 5793 5796 5798 5801 5804 5808 5809 5811 5813 5815 5818 5820 5822 5824 5825 5827 5828 5831 5832 5834 5835 5837 5838 5839 5840 5841 5841 5842 5842 5842 5841 5840 5840 5839 5838 5838 5836 5835 5833 5832
5771 5775 5778 5781 5784 5788 5787 5791 5794 5796 5798 5800 5802 5804 5806 5808 5810 5812 5813 5815 5817 5819 5821 5822 5824 5825 5827 5828 5829 5830 5831 5831 5831 5830 5830 5829 5828 5828 5828 5827 5826 5825 5824 5822
5761 5765 5768 5772 5775 5775 5777 5780 5782 5785 5787 5789 5791 5793 5795 5797 5798 5800 5801 5803 5805 5806 5808 5810 5811 5813 5814 5815 5817 5818 5818 5818 5819 5819 5819 5818 5818 5818 5817 5816 5816 5815 5814 5812
5752 5755 5758 5760 5763 5765 5767 5769 5771 5773 5776 5778 5780 5781 5783 5785 5786 5788 5789 5791 5792 5794 5796 5797 5799 5800 5802 5803 5804 5805 5805 5806 5807 5807 5807 5806 5805 5804 5804 5805 5805 5804 5804 5802
5743 5746 5748 5750 5753 5755 5757 5758 5761 5762 5764 5766 5768 5769 5771 5772 5774 5775 5776 5778 5779 5781 5783 5784 5786 5787 5789 5790 5791 5792 5793 5794 5794 5794 5794 5792 5792 5791 5791 5792 5792 5793 5793 5792
5733 5736 5739 5741 5743 5745 5747 5748 5750 5752 5753 5754 5756 5757 5758 5759 5760 5761 5763 5764 5765 5767 5769 5770 5772 5774 5775 5777 5778 5779 5780 5780 5781 5781 5780 5780 5780 5780 5780 5781 5781 5781 5781 5780
Wind_Speed
21 20 19 18 16 14 12 10 8 7 5 2 1 1 2 4 5 7 8 9 11 12 13 13 13 13 14 14 14 14 13 13 12 11 11 9 9 8 7 7 5 4 3 2
23 22 21 21 18 16 15 13 12 10 8 6 4 3 2 3 3 5 6 8 9 10 10 11 12 13 13 13 13 13 13 13 12 12 11 11 10 9 8 7 6 5 4 3
25 24 23 22 20 19 18 16 14 13 11 9 7 6 5 4 4 4 5 7 8 8 9 9 10 11 11 12 12 12 12 12 12 12 11 11 11 10 9 8 7 6 5 4
27 26 25 23 22 21 20 19 17 16 14 11 10 8 9 8 6 6 6 6 7 8 8 8 9 9 10 11 11 11 11 11 11 12 11 11 11 11 10 10 9 6 6 6
30 28 26 26 24 23 23 21 20 18 17 15 14 11 10 10 8 7 7 7 8 8 7 7 8 8 9 9 10 10 10 10 10 11 11 11 11 10 10 10 10 8 7 7
32 31 29 28 26 25 24 23 22 21 19 19 17 15 13 13 11 9 9 9 8 8 7 7 8 8 8 8 8 9 10 9 9 10 10 10 10 10 9 9 9 9 8 8
33 33 31 30 28 26 25 23 22 20 20 19 19 18 15 14 13 12 11 11 10 8 8 8 8 8 7 7 8 9 9 9 8 9 10 10 10 10 9 9 9 9 9 8
33 33 33 31 29 28 27 25 23 21 19 18 21 20 17 17 16 15 14 13 12 10 10 9 9 9 8 8 8 8 9 9 9 9 9 9 9 9 9 9 10 10 10 10
32 32 33 32 30 30 29 28 25 24 23 21 21 22 19 18 17 17 16 15 14 13 12 11 11 10 10 9 9 9 8 9 9 9 9 9 9 9 10 10 11 11 12 11
33 33 33 32 32 32 31 29 28 26 24 23 22 22 21 19 18 18 17 16 15 15 14 14 13 12 11 10 10 9 9 9 10 10 10 10 10 10 10 11 12 12 12 12
34 33 33 34 34 32 32 31 31 28 27 25 21 21 22 21 20 19 19 18 18 17 16 15 14 13 12 11 11 10 10 10 11 11 11 11 10 10 11 12 13 13 13 13
34 34 33 34 35 34 34 33 32 30 30 29 26 24 25 22 21 20 20 19 19 19 18 18 16 16 15 14 13 13 12 12 12 12 12 12 12 12 13 14 14 14 14 14
35 35 33 32 34 36 36 35 34 33 31 30 28 26 26 25 23 22 22 21 20 20 20 20 19 18 17 16 16 15 15 15 14 14 14 14 14 14 15 15 15 15 15 15
36 36 35 31 30 34 36 36 36 35 32 31 31 29 28 27 25 24 24 24 23 23 23 22 22 21 20 19 18 18 18 17 17 16 16 15 16 16 17 17 17 16 16 16
36 37 36 35 33 34 35 35 36 36 36 34 32 32 32 30 28 27 27 26 26 26 25 25 25 24 23 22 22 21 20 20 20 19 18 18 18 18 18 18 18 18 17 18
38 38 37 36 35 34 35 35 36 36 36 36 35 35 33 32 31 29 29 29 29 28 28 28 27 27 26 25 24 24 24 23 22 22 21 21 20 21 21 20 20 20 20 20
39 39 38 36 36 35 36 36 36 36 36 36 36 36 34 34 33 32 31 31 31 31 30 30 30 29 29 28 28 27 27 26 26 25 24 23 23 23 23 23 24 23 22 23
38 38 38 36 36 37 37 37 36 36 36 36 36 36 35 35 35 34 34 34 34 33 33 33 32 32 31 31 31 31 30 28 28 28 27 27 26 26 26 27 26 26 26 25
37 37 37 36 36 38 39 38 37 37 38 38 38 38 37 37 36 36 36 36 36 36 35 35 35 35 35 35 34 33 32 31 31 30 30 30 30 29 29 29 29 28 27 26
37 36 36 37 35 36 38 38 38 38 40 39 39 39 39 39 39 39 38 37 37 37 38 37 37 37 38 38 36 35 34 34 33 32 33 33 33 32 31 30 30 29 29 29
36 37 36 36 36 36 38 37 36 38 39 38 38 39 39 39 40 39 39 39 38 38 39 39 39 39 40 40 39 38 37 36 36 36 36 36 36 35 34 33 33 32 32 31
35 36 37 36 36 37 39 37 37 38 38 37 38 38 39 39 40 40 40 40 40 40 40 41 41 42 42 42 41 41 41 40 40 39 39 39 38 38 37 36 35 35 34 34
35 35 36 37 38 39 39 39 38 38 37 37 38 38 39 40 40 41 41 41 41 41 41 42 42 42 43 43 43 44 43 43 42 42 42 42 41 41 40 39 38 37 35 34
34 34 35 36 37 38 38 38 39 38 38 38 38 39 39 40 40 41 41 42 41 41 41 42 42 42 42 43 43 43 43 43 43 43 43 43 43 42 41 41 40 39 37 35
31 32 33 34 34 35 36 36 37 38 39 39 39 40 40 40 40 41 41 42 42 42 42 43 43 43 43 43 43 43 43 43 43 44 45 46 43 41 41 40 40 39 37 36
31 32 32 33 34 34 34 35 36 37 37 38 39 39 40 41 42 42 43 43 43 43 43 43 44 44 44 44 44 44 45 45 45 45 46 46 45 44 43 44 42 39 37 37
Wind_Direction
223 222 224 225 223 224 229 229 238 245 245 251 278 356 5 16 25 29 25 23 23 22 25 27 28 30 32 33 33 32 33 32 32 31 30 32 31 31 30 27 29 27 10 348
224 225 225 226 227 229 233 235 243 251 251 256 266 270 294 330 355 10 11 7 10 13 16 19 20 22 26 29 30 30 31 30 29 30 30 32 33 30 25 25 23 24 15 353
226 228 228 229 230 232 235 237 242 246 251 258 262 273 280 285 307 331 343 347 353 360 3 6 10 14 19 24 26 26 26 27 27 27 29 31 30 26 24 22 18 18 19 7
227 227 228 229 232 232 236 240 243 247 249 254 258 258 272 276 282 299 311 324 332 342 349 350 357 4 9 14 18 20 20 21 22 23 25 25 25 25 25 23 18 15 15 15
230 230 230 231 233 233 234 240 243 246 249 250 256 254 258 269 273 279 290 302 314 324 331 337 343 348 356 2 6 9 10 12 16 17 18 20 20 19 20 21 20 19 16 14
231 233 233 233 234 234 236 240 245 248 249 251 252 252 254 261 268 270 278 287 296 303 310 319 327 332 341 349 354 359 1 2 7 11 11 11 13 16 19 19 13 13 11 6
231 233 233 233 234 235 235 238 244 248 249 252 254 252 251 255 261 263 269 275 283 290 298 305 311 316 322 330 338 350 354 355 355 1 5 8 9 11 12 12 10 5 358 356
231 233 233 232 232 236 235 235 237 240 247 253 258 253 252 256 259 260 262 267 271 278 286 293 296 301 305 313 322 334 343 349 351 352 357 0 1 1 1 0 360 357 350 345
230 232 235 233 233 235 237 236 237 242 245 245 250 256 256 257 257 258 258 261 266 271 278 283 286 293 295 301 305 314 327 336 343 344 343 346 347 348 350 349 347 348 347 343
230 232 236 235 234 235 237 239 240 239 242 246 251 259 258 256 256 257 256 257 261 265 271 276 278 283 287 292 295 299 310 321 327 334 333 328 332 334 337 341 339 338 340 339
230 232 235 235 234 235 236 238 240 242 241 244 248 256 260 256 254 255 254 253 255 258 265 272 274 277 280 284 287 290 298 307 315 318 322 322 322 324 326 328 330 330 331 333
230 231 233 237 237 237 239 239 241 243 246 247 245 250 257 256 253 252 251 250 251 254 258 264 268 272 272 274 279 283 289 295 301 307 311 315 317 315 317 317 317 319 320 321
230 231 233 237 240 237 238 239 241 243 245 248 248 251 256 255 253 251 249 249 249 251 253 258 261 265 267 268 271 276 280 285 291 297 301 306 309 308 309 309 309 309 311 314
233 233 232 231 235 240 239 240 241 242 243 247 249 248 251 255 254 251 251 251 251 252 253 256 258 262 265 266 269 272 275 280 285 289 293 297 300 302 302 304 304 303 303 305
233 235 235 234 236 240 241 241 242 242 242 244 249 251 251 254 255 252 250 250 251 252 253 256 258 260 262 264 266 268 271 275 280 283 287 291 294 297 299 299 299 298 298 299
233 236 237 238 239 241 242 242 243 244 245 246 248 251 253 254 255 253 251 251 252 252 251 254 256 257 259 261 263 266 269 271 273 277 281 287 292 293 294 293 292 292 294 294
235 236 238 240 241 243 243 242 243 245 246 247 249 251 253 254 254 253 251 251 252 251 252 253 255 256 257 260 262 266 269 271 273 277 280 283 287 290 290 290 289 288 289 290
237 237 239 241 243 243 245 244 245 246 247 248 249 251 253 254 255 254 252 251 250 250 252 253 254 255 256 258 261 264 265 268 270 273 276 279 283 285 288 289 289 287 288 289
237 238 240 242 245 247 247 246 247 248 250 249 250 251 252 253 255 255 253 252 251 250 251 252 253 254 255 257 259 261 264 266 269 270 273 276 278 282 284 285 287 287 285 287
238 239 241 242 243 248 250 248 247 249 251 250 251 252 252 253 254 255 254 254 253 252 252 253 253 254 255 256 258 260 263 264 267 269 271 273 276 278 279 281 283 284 284 285
238 240 241 244 245 247 249 250 250 249 251 252 252 253 254 254 255 256 256 255 254 254 254 254 255 254 254 255 257 259 261 263 264 265 268 271 273 274 276 278 280 282 284 285
239 241 243 245 247 250 251 251 251 253 253 253 253 253 253 254 256 256 256 255 255 256 255 255 255 255 255 256 258 259 260 261 263 265 265 267 269 271 272 275 277 280 282 282
239 241 244 245 247 250 253 254 254 255 255 254 254 255 255 255 255 256 256 256 257 257 256 256 257 257 257 257 257 258 260 259 260 263 265 268 269 271 272 273 276 278 279 281
241 242 245 247 248 251 253 254 254 254 255 255 255 255 256 256 256 256 256 256 257 257 256 256 257 258 259 259 260 261 262 263 263 264 265 267 269 270 270 272 275 276 278 277
242 243 246 248 249 251 252 253 255 255 256 256 257 257 258 257 257 258 258 258 257 257 257 257 257 258 258 259 260 261 261 263 264 264 265 267 267 269 272 275 277 277 276 277
243 245 246 249 250 252 253 254 256 257 258 258 260 260 261 261 260 259 259 260 258 257 257 257 257 258 258 259 260 262 263 263 263 264 264 266 268 271 272 275 276 276 275 275